| time (UTC) | temp C | wind direction | speed KPH | gust KPH | rain 1hr cm | rain 24hr cm | rain mn cm | humidity % | barometer mb |
| 20260507000438 | 14 | 281 | 4.8 | 16.1 | 0.08 | 0.28 | 0.28 | 94 | 1003.9 |
| 20260506235922 | 14 | 259 | 4.8 | 16.1 | 0.08 | 0.28 | 0.28 | 94 | 1003.9 |
| 20260506235426 | 14 | 251 | 4.8 | 16.1 | 0.08 | 0.28 | 0.28 | 94 | 1003.8 |
| 20260506234924 | 14 | 314 | 3.2 | 24.1 | 0.08 | 0.28 | 0.28 | 94 | 1003.8 |
| 20260506234443 | 14 | 289 | 3.2 | 24.1 | 0.10 | 0.28 | 0.28 | 94 | 1003.8 |
| 20260506233920 | 14 | 283 | 4.8 | 12.9 | 0.08 | 0.25 | 0.25 | 94 | 1003.8 |
| 20260506233426 | 14 | 283 | 3.2 | 24.1 | 0.08 | 0.25 | 0.25 | 94 | 1003.8 |
| 20260506233048 | 14 | 262 | 4.8 | 27.4 | 0.03 | 0.20 | 0.20 | 93 | 1003.8 |
| 20260506233025 | 14 | 300 | 3.2 | 25.7 | 0.05 | 0.23 | 0.23 | 93 | 1003.7 |
| 20260506232936 | 14 | 272 | 3.2 | 11.3 | 0.08 | 0.25 | 0.25 | 94 | 1003.7 |
| 20260506232551 | 14 | 273 | 3.2 | 24.1 | 0.08 | 0.25 | 0.23 | 93 | 1003.7 |
| 20260506231946 | 14 | 312 | 3.2 | 24.1 | 0.05 | 0.23 | 0.23 | 93 | 1003.7 |
| 20260506231629 | 14 | 272 | 3.2 | 25.7 | 0.05 | 0.23 | 0.23 | 93 | 1003.6 |
| 20260506230146 | 14 | 276 | 4.8 | 27.4 | 0.03 | 0.20 | 0.20 | 93 | 1003.9 |
| 20260506225804 | 14 | 331 | 4.8 | 14.5 | 0.03 | 0.20 | 0.20 | 93 | 1003.8 |
| 20260506225657 | 14 | 203 | 3.2 | 14.5 | 0.03 | 0.20 | 0.20 | 93 | 1003.9 |
| 20260506224650 | 14 | 215 | 4.8 | 14.5 | 0.00 | 0.18 | 0.18 | 93 | 1003.9 |
| 20260506224133 | 14 | 275 | 4.8 | 14.5 | 0.05 | 0.18 | 0.18 | 92 | 1004.1 |
| 20260506224050 | 14 | 283 | 3.2 | 14.5 | 0.00 | 0.18 | 0.18 | 93 | 1003.8 |
| 20260506223954 | 14 | 295 | 3.2 | 11.3 | 0.00 | 0.18 | 0.18 | 93 | 1003.9 |
| 20260506223355 | 15 | 10 | 3.2 | 12.9 | 0.05 | 0.18 | 0.18 | 92 | 1004.1 |
| 20260506223200 | 14 | 256 | 4.8 | 14.5 | 0.03 | 0.18 | 0.18 | 93 | 1003.8 |
| 20260506223151 | 14 | 327 | 4.8 | 14.5 | 0.03 | 0.18 | 0.18 | 93 | 1003.8 |
| 20260506223015 | 14 | 292 | 3.2 | 14.5 | 0.03 | 0.18 | 0.18 | 93 | 1003.9 |
| 20260506221524 | 14 | 111 | 4.8 | 14.5 | 0.03 | 0.18 | 0.18 | 93 | 1003.9 |
| 20260506220449 | 14 | 298 | 4.8 | 14.5 | 0.05 | 0.18 | 0.18 | 92 | 1004.2 |
| 20260506220119 | 15 | 26 | 3.2 | 14.5 | 0.05 | 0.18 | 0.18 | 92 | 1004.2 |
| 20260506214857 | 15 | 267 | 3.2 | 16.1 | 0.05 | 0.18 | 0.18 | 92 | 1004.2 |
| 20260506214438 | 15 | 269 | 4.8 | 25.7 | 0.05 | 0.18 | 0.18 | 92 | 1004.2 |
| 20260506214356 | 15 | 261 | 3.2 | 14.5 | 0.05 | 0.18 | 0.18 | 92 | 1004.2 |
| 20260506213353 | 15 | 302 | 4.8 | 25.7 | 0.05 | 0.18 | 0.18 | 92 | 1004.2 |
| 20260506212851 | 15 | 323 | 6.4 | 20.9 | 0.03 | 0.15 | 0.15 | 92 | 1004.4 |
| 20260506212351 | 15 | 237 | 6.4 | 20.9 | 0.03 | 0.15 | 0.15 | 91 | 1004.4 |
| 20260506211915 | 15 | 320 | 4.8 | 17.7 | 0.05 | 0.15 | 0.15 | 91 | 1004.5 |
| 20260506211836 | 15 | 310 | 4.8 | 16.1 | 0.05 | 0.15 | 0.13 | 91 | 1004.6 |
| 20260506211101 | 15 | 286 | 3.2 | 16.1 | 0.03 | 0.13 | 0.13 | 91 | 1004.5 |
| 20260506210342 | 15 | 246 | 3.2 | 16.1 | 0.03 | 0.13 | 0.13 | 91 | 1004.5 |
| 20260506205832 | 15 | 356 | 4.8 | 16.1 | 0.03 | 0.13 | 0.13 | 91 | 1004.4 |
| 20260506205623 | 15 | 183 | 4.8 | 12.9 | 0.03 | 0.13 | 0.13 | 91 | 1004.6 |
| 20260506205339 | 15 | 257 | 4.8 | 12.9 | 0.03 | 0.13 | 0.13 | 91 | 1004.6 |
| 20260506204957 | 15 | 263 | 4.8 | 12.9 | 0.03 | 0.13 | 0.13 | 91 | 1004.6 |
| 20260506203821 | 15 | 264 | 4.8 | 14.5 | 0.03 | 0.13 | 0.13 | 90 | 1004.7 |
| 20260506203335 | 15 | 219 | 3.2 | 14.5 | 0.05 | 0.13 | 0.13 | 90 | 1004.6 |
| 20260506202829 | 15 | 296 | 3.2 | 16.1 | 0.05 | 0.13 | 0.13 | 90 | 1004.8 |
| 20260506202324 | 15 | 320 | 3.2 | 16.1 | 0.08 | 0.13 | 0.10 | 90 | 1004.8 |
| 20260506201821 | 15 | 352 | 3.2 | 16.1 | 0.05 | 0.10 | 0.10 | 90 | 1004.9 |
| 20260506201608 | 15 | 305 | 3.2 | 12.9 | 0.05 | 0.10 | 0.10 | 89 | 1004.9 |
| 20260506201407 | 15 | 304 | 3.2 | 16.1 | 0.05 | 0.10 | 0.10 | 89 | 1004.9 |
| 20260506200545 | 15 | 345 | 4.8 | 16.1 | 0.08 | 0.10 | 0.10 | 89 | 1004.9 |
| 20260506195812 | 15 | 218 | 4.8 | 14.5 | 0.08 | 0.10 | 0.10 | 88 | 1004.8 |
| 20260506195317 | 15 | 271 | 4.8 | 17.7 | 0.08 | 0.10 | 0.10 | 88 | 1004.8 |
| 20260506194819 | 15 | 285 | 3.2 | 17.7 | 0.10 | 0.10 | 0.10 | 89 | 1004.8 |
| 20260506194304 | 15 | 282 | 3.2 | 11.3 | 0.10 | 0.10 | 0.10 | 88 | 1004.9 |
| 20260506193758 | 15 | 335 | 4.8 | 11.3 | 0.10 | 0.10 | 0.10 | 88 | 1004.7 |
| 20260506193258 | 15 | 268 | 3.2 | 11.3 | 0.08 | 0.08 | 0.08 | 87 | 1004.8 |
| 20260506192753 | 15 | 235 | 3.2 | 11.3 | 0.08 | 0.08 | 0.08 | 86 | 1004.9 |
| 20260506192305 | 16 | 279 | 3.2 | 22.5 | 0.05 | 0.05 | 0.05 | 85 | 1005.2 |
| 20260506192029 | 16 | 293 | 3.2 | 22.5 | 0.05 | 0.05 | 0.05 | 85 | 1005.1 |
| 20260506191306 | 16 | 251 | 4.8 | 22.5 | 0.05 | 0.05 | 0.05 | 84 | 1005.1 |
| 20260506190758 | 16 | 27 | 3.2 | 22.5 | 0.05 | 0.05 | 0.05 | 82 | 1005.1 |
| 20260506190318 | 16 | 279 | 4.8 | 17.7 | 0.03 | 0.03 | 0.03 | 81 | 1005.2 |
| 20260506190036 | 16 | 202 | 6.4 | 19.3 | 0.03 | 0.03 | 0.03 | 79 | 1005.2 |
| 20260506185720 | 17 | 308 | 4.8 | 19.3 | 0.00 | 0.00 | 0.00 | 76 | 1005.3 |
| 20260506185627 | 17 | 271 | 4.8 | 19.3 | 0.03 | 0.03 | 0.00 | 77 | 1005.3 |
| 20260506184252 | 17 | 318 | 4.8 | 19.3 | 0.00 | 0.00 | 0.00 | 74 | 1005.4 |
| 20260506183740 | 18 | 168 | 4.8 | 19.3 | 0.00 | 0.00 | 0.00 | 73 | 1005.3 |
| 20260506183245 | 18 | 121 | 3.2 | 19.3 | 0.00 | 0.00 | 0.00 | 72 | 1005.3 |
| 20260506182743 | 18 | 260 | 4.8 | 19.3 | 0.00 | 0.00 | 0.00 | 72 | 1005.3 |
| 20260506182235 | 18 | 312 | 6.4 | 19.3 | 0.00 | 0.00 | 0.00 | 70 | 1005.4 |
| 20260506181807 | 19 | 6 | 4.8 | 19.3 | 0.00 | 0.00 | 0.00 | 68 | 1005.3 |
| 20260506181302 | 20 | 220 | 3.2 | 12.9 | 0.00 | 0.00 | 0.00 | 66 | 1005.5 |
| 20260506180831 | 20 | 308 | 4.8 | 22.5 | 0.00 | 0.00 | 0.00 | 64 | 1005.5 |
| 20260506180813 | 19 | 294 | 6.4 | 25.7 | 0.00 | 0.00 | 0.00 | 66 | 1005.5 |
| 20260506180408 | 20 | 258 | 8.0 | 25.7 | 0.00 | 0.00 | 0.00 | 65 | 1005.4 |
| 20260506175418 | 21 | 210 | 6.4 | 29.0 | 0.00 | 0.00 | 0.00 | 60 | 1005.8 |
| 20260506175412 | 21 | 60 | 8.0 | 22.5 | 0.00 | 0.00 | 0.00 | 59 | 1005.9 |
| 20260506175258 | 20 | 161 | 6.4 | 22.5 | 0.00 | 0.00 | 0.00 | 63 | 1005.5 |
| 20260506174924 | 20 | 277 | 6.4 | 25.7 | 0.00 | 0.00 | 0.00 | 61 | 1005.4 |
| 20260506174910 | 21 | 294 | 6.4 | 27.4 | 0.00 | 0.00 | 0.00 | 60 | 1005.6 |
| 20260506174816 | 20 | 190 | 8.0 | 25.7 | 0.00 | 0.00 | 0.00 | 61 | 1005.6 |
| 20260506174748 | 21 | 284 | 8.0 | 27.4 | 0.00 | 0.00 | 0.00 | 58 | 1005.7 |
| 20260506174725 | 21 | 308 | 6.4 | 27.4 | 0.00 | 0.00 | 0.00 | 58 | 1005.7 |
| 20260506174711 | 22 | 303 | 6.4 | 19.3 | 0.00 | 0.00 | 0.00 | 57 | 1005.8 |
| 20260506174705 | 22 | 281 | 6.4 | 29.0 | 0.00 | 0.00 | 0.00 | 59 | 1005.6 |
| 20260506173944 | 21 | 34 | 6.4 | 25.7 | 0.00 | 0.00 | 0.00 | 61 | 1005.5 |
| 20260506173326 | 21 | 252 | 6.4 | 25.7 | 0.00 | 0.00 | 0.00 | 59 | 1005.7 |
| 20260506172342 | 21 | 306 | 8.0 | 27.4 | 0.00 | 0.00 | 0.00 | 59 | 1005.5 |
| 20260506170323 | 22 | 275 | 6.4 | 19.3 | 0.00 | 0.00 | 0.00 | 56 | 1005.7 |
| 20260506165950 | 22 | 354 | 8.0 | 19.3 | 0.00 | 0.00 | 0.00 | 56 | 1005.4 |
| 20260506164044 | 21 | 21 | 8.0 | 25.7 | 0.00 | 0.00 | 0.00 | 60 | 1006.2 |
| 20260506163801 | 21 | 225 | 6.4 | 20.9 | 0.00 | 0.00 | 0.00 | 59 | 1006.0 |
| 20260506163415 | 21 | 347 | 6.4 | 27.4 | 0.00 | 0.00 | 0.00 | 59 | 1006.1 |
| 20260506162749 | 21 | 92 | 8.0 | 27.4 | 0.00 | 0.00 | 0.00 | 58 | 1006.1 |
| 20260506161652 | 21 | 319 | 6.4 | 25.7 | 0.00 | 0.00 | 0.00 | 59 | 1006.2 |
| 20260506161211 | 21 | 205 | 6.4 | 29.0 | 0.00 | 0.00 | 0.00 | 59 | 1006.3 |
| 20260506160700 | 21 | 301 | 6.4 | 29.0 | 0.00 | 0.00 | 0.00 | 59 | 1006.3 |
| 20260506160205 | 21 | 254 | 6.4 | 24.1 | 0.00 | 0.00 | 0.00 | 60 | 1006.5 |
| 20260506155650 | 21 | 268 | 6.4 | 24.1 | 0.00 | 0.00 | 0.00 | 60 | 1006.5 |
| 20260506155143 | 21 | 225 | 4.8 | 24.1 | 0.00 | 0.00 | 0.00 | 60 | 1006.5 |
| 20260506155000 | 21 | 202 | 4.8 | 20.9 | 0.00 | 0.00 | 0.00 | 61 | 1006.6 |
| 20260506154146 | 20 | 256 | 6.4 | 20.9 | 0.00 | 0.00 | 0.00 | 62 | 1006.7 |
| 20260506153650 | 20 | 244 | 6.4 | 24.1 | 0.00 | 0.00 | 0.00 | 62 | 1006.7 |
| 20260506153145 | 20 | 142 | 6.4 | 24.1 | 0.00 | 0.00 | 0.00 | 63 | 1006.8 |
| 20260506152640 | 20 | 250 | 6.4 | 24.1 | 0.00 | 0.00 | 0.00 | 62 | 1006.9 |
| 20260506152138 | 21 | 333 | 6.4 | 24.1 | 0.00 | 0.00 | 0.00 | 61 | 1007.0 |
| 20260506151626 | 21 | 262 | 6.4 | 20.9 | 0.00 | 0.00 | 0.00 | 63 | 1007.0 |
| 20260506151137 | 20 | 337 | 6.4 | 16.1 | 0.00 | 0.00 | 0.00 | 62 | 1007.0 |
| 20260506150632 | 20 | 350 | 6.4 | 16.1 | 0.00 | 0.00 | 0.00 | 63 | 1007.1 |
| 20260506150132 | 20 | 214 | 4.8 | 16.1 | 0.00 | 0.00 | 0.00 | 63 | 1007.1 |
| 20260506145629 | 20 | 254 | 4.8 | 16.1 | 0.00 | 0.00 | 0.00 | 63 | 1007.1 |
| 20260506145131 | 20 | 20 | 6.4 | 22.5 | 0.00 | 0.00 | 0.00 | 62 | 1007.0 |
| 20260506144626 | 20 | 199 | 8.0 | 22.5 | 0.00 | 0.00 | 0.00 | 63 | 1007.1 |
| 20260506144124 | 20 | 320 | 8.0 | 24.1 | 0.00 | 0.00 | 0.00 | 63 | 1007.2 |
| 20260506143623 | 20 | 315 | 6.4 | 24.1 | 0.00 | 0.00 | 0.00 | 63 | 1007.2 |
| 20260506143125 | 20 | 9 | 6.4 | 22.5 | 0.00 | 0.00 | 0.00 | 65 | 1007.0 |
| 20260506142613 | 20 | 287 | 6.4 | 22.5 | 0.00 | 0.00 | 0.00 | 64 | 1007.1 |
| 20260506142118 | 20 | 310 | 4.8 | 17.7 | 0.00 | 0.00 | 0.00 | 66 | 1007.0 |
| 20260506141620 | 20 | 272 | 6.4 | 19.3 | 0.00 | 0.00 | 0.00 | 66 | 1007.0 |
| 20260506141115 | 20 | 242 | 4.8 | 19.3 | 0.00 | 0.00 | 0.00 | 67 | 1007.0 |
| 20260506140622 | 20 | 237 | 4.8 | 19.3 | 0.00 | 0.00 | 0.00 | 67 | 1007.0 |
| 20260506140555 | 18 | 206 | 4.8 | 12.9 | 0.00 | 0.00 | 0.00 | 73 | 1007.2 |
| 20260506140526 | 19 | 241 | 3.2 | 20.9 | 0.00 | 0.00 | 0.00 | 69 | 1007.0 |
| 20260506140516 | 19 | 278 | 4.8 | 20.9 | 0.00 | 0.00 | 0.00 | 70 | 1007.0 |
| 20260506140228 | 20 | 320 | 6.4 | 19.3 | 0.00 | 0.00 | 0.00 | 68 | 1006.9 |
| 20260506135903 | 19 | 223 | 4.8 | 19.3 | 0.00 | 0.00 | 0.00 | 68 | 1007.0 |
| 20260506134316 | 18 | 306 | 4.8 | 14.5 | 0.00 | 0.00 | 0.00 | 70 | 1007.1 |
| 20260506133722 | 18 | 268 | 4.8 | 12.9 | 0.00 | 0.00 | 0.00 | 72 | 1007.0 |
| 20260506132608 | 18 | 236 | 4.8 | 12.9 | 0.00 | 0.00 | 0.00 | 72 | 1007.4 |
| 20260506132112 | 18 | 271 | 4.8 | 12.9 | 0.00 | 0.00 | 0.00 | 72 | 1007.6 |
| 20260506131617 | 18 | 282 | 4.8 | 12.9 | 0.00 | 0.00 | 0.00 | 73 | 1007.6 |
| 20260506131122 | 18 | 307 | 3.2 | 19.3 | 0.00 | 0.00 | 0.00 | 73 | 1007.7 |
| 20260506130725 | 17 | 269 | 3.2 | 16.1 | 0.00 | 0.00 | 0.00 | 75 | 1007.6 |
| 20260506130714 | 17 | 319 | 4.8 | 12.9 | 0.00 | 0.00 | 0.00 | 77 | 1007.7 |
| 20260506130628 | 18 | 253 | 4.8 | 19.3 | 0.00 | 0.00 | 0.00 | 73 | 1007.7 |
| 20260506130243 | 18 | 229 | 6.4 | 22.5 | 0.00 | 0.00 | 0.00 | 73 | 1007.6 |
| 20260506125718 | 18 | 45 | 4.8 | 22.5 | 0.00 | 0.00 | 0.00 | 73 | 1007.7 |
| 20260506125329 | 18 | 96 | 4.8 | 20.9 | 0.00 | 0.00 | 0.00 | 75 | 1007.5 |
| 20260506124104 | 17 | 358 | 3.2 | 16.1 | 0.00 | 0.00 | 0.00 | 77 | 1007.6 |
| 20260506123052 | 16 | 271 | 3.2 | 12.9 | 0.00 | 0.00 | 0.00 | 78 | 1007.7 |
| 20260506122938 | 16 | 217 | 4.8 | 16.1 | 0.00 | 0.00 | 0.00 | 79 | 1007.8 |
| 20260506122931 | 16 | 87 | 3.2 | 14.5 | 0.00 | 0.00 | 0.00 | 78 | 1007.9 |
| 20260506122855 | 16 | 303 | 4.8 | 16.1 | 0.00 | 0.00 | 0.00 | 79 | 1007.7 |
| 20260506122259 | 16 | 271 | 4.8 | 14.5 | 0.00 | 0.00 | 0.00 | 78 | 1007.8 |
| 20260506120549 | 16 | 279 | 4.8 | 16.1 | 0.00 | 0.00 | 0.00 | 80 | 1007.8 |
| 20260506120417 | 15 | 268 | 4.8 | 22.5 | 0.00 | 0.00 | 0.00 | 81 | 1008.0 |
| 20260506120107 | 16 | 238 | 4.8 | 17.7 | 0.00 | 0.00 | 0.00 | 80 | 1007.7 |
| 20260506115616 | 16 | 278 | 4.8 | 17.7 | 0.00 | 0.00 | 0.00 | 81 | 1007.7 |
| 20260506114537 | 15 | 17 | 4.8 | 22.5 | 0.00 | 0.00 | 0.00 | 82 | 1008.2 |
| 20260506114054 | 15 | 277 | 4.8 | 22.5 | 0.00 | 0.00 | 0.00 | 82 | 1008.0 |
| 20260506113551 | 15 | 331 | 3.2 | 22.5 | 0.00 | 0.00 | 0.00 | 82 | 1008.0 |
| 20260506113110 | 15 | 160 | 3.2 | 16.1 | 0.00 | 0.00 | 0.00 | 82 | 1008.2 |
| 20260506112544 | 15 | 279 | 3.2 | 16.1 | 0.00 | 0.00 | 0.00 | 82 | 1008.3 |
| 20260506112501 | 15 | 278 | 3.2 | 16.1 | 0.00 | 0.00 | 0.00 | 83 | 1008.2 |
| 20260506112448 | 15 | 290 | 3.2 | 14.5 | 0.00 | 0.00 | 0.00 | 83 | 1008.1 |
| 20260506112142 | 15 | 260 | 3.2 | 16.1 | 0.00 | 0.00 | 0.00 | 83 | 1008.2 |
| 20260506110526 | 15 | 283 | 4.8 | 16.1 | 0.00 | 0.00 | 0.00 | 83 | 1008.1 |
| 20260506110025 | 15 | 287 | 3.2 | 16.1 | 0.00 | 0.00 | 0.00 | 83 | 1007.9 |
| 20260506105516 | 15 | 287 | 3.2 | 9.7 | 0.00 | 0.00 | 0.00 | 84 | 1007.9 |
| 20260506105013 | 14 | 311 | 3.2 | 11.3 | 0.00 | 0.00 | 0.00 | 84 | 1008.0 |
| 20260506104511 | 14 | 265 | 4.8 | 12.9 | 0.00 | 0.00 | 0.00 | 84 | 1008.0 |
| 20260506104001 | 14 | 253 | 3.2 | 12.9 | 0.00 | 0.00 | 0.00 | 84 | 1008.0 |
| 20260506103725 | 14 | 267 | 3.2 | 11.3 | 0.00 | 0.00 | 0.00 | 84 | 1007.9 |
| 20260506103226 | 14 | 305 | 3.2 | 19.3 | 0.00 | 0.00 | 0.00 | 84 | 1008.0 |
| 20260506102502 | 14 | 322 | 3.2 | 19.3 | 0.00 | 0.00 | 0.00 | 84 | 1008.1 |
| 20260506102001 | 14 | 271 | 3.2 | 19.3 | 0.00 | 0.00 | 0.00 | 84 | 1008.0 |
| 20260506101808 | 14 | 266 | 3.2 | 12.9 | 0.00 | 0.00 | 0.00 | 84 | 1008.0 |
| 20260506101543 | 14 | 333 | 3.2 | 19.3 | 0.00 | 0.00 | 0.00 | 84 | 1008.0 |
| 20260506100500 | 14 | 311 | 1.6 | 11.3 | 0.00 | 0.00 | 0.00 | 83 | 1008.0 |
| 20260506095954 | 14 | 306 | 1.6 | 8.0 | 0.00 | 0.00 | 0.00 | 83 | 1007.9 |
| 20260506095901 | 14 | 243 | 3.2 | 16.1 | 0.00 | 0.00 | 0.00 | 83 | 1007.8 |
| 20260506095543 | 14 | 308 | 3.2 | 16.1 | 0.00 | 0.00 | 0.00 | 83 | 1007.9 |
| 20260506094446 | 14 | 269 | 4.8 | 16.1 | 0.00 | 0.00 | 0.00 | 83 | 1007.8 |
| 20260506093945 | 14 | 316 | 3.2 | 16.1 | 0.00 | 0.00 | 0.00 | 83 | 1007.7 |
| 20260506093720 | 14 | 311 | 1.6 | 14.5 | 0.00 | 0.00 | 0.00 | 83 | 1007.7 |
| 20260506092945 | 14 | 210 | 3.2 | 14.5 | 0.00 | 0.00 | 0.00 | 82 | 1007.8 |
| 20260506092452 | 14 | 258 | 3.2 | 14.5 | 0.00 | 0.00 | 0.00 | 82 | 1007.7 |
| 20260506091946 | 14 | 295 | 4.8 | 17.7 | 0.00 | 0.00 | 0.00 | 82 | 1007.7 |
| 20260506091450 | 15 | 275 | 4.8 | 17.7 | 0.00 | 0.00 | 0.00 | 82 | 1007.8 |
| 20260506090946 | 15 | 312 | 4.8 | 17.7 | 0.00 | 0.00 | 0.00 | 82 | 1007.7 |
| 20260506090434 | 15 | 269 | 4.8 | 20.9 | 0.00 | 0.00 | 0.00 | 82 | 1007.7 |
| 20260506085954 | 15 | 244 | 4.8 | 20.9 | 0.00 | 0.00 | 0.00 | 81 | 1007.7 |
| 20260506085806 | 15 | 277 | 4.8 | 17.7 | 0.00 | 0.00 | 0.00 | 81 | 1008.0 |
| 20260506085801 | 15 | 157 | 4.8 | 20.9 | 0.00 | 0.00 | 0.00 | 81 | 1007.9 |
| 20260506085528 | 15 | 301 | 4.8 | 20.9 | 0.00 | 0.00 | 0.00 | 81 | 1007.8 |
| 20260506084545 | 15 | 314 | 4.8 | 17.7 | 0.00 | 0.00 | 0.00 | 81 | 1007.9 |
| 20260506083423 | 15 | 283 | 4.8 | 17.7 | 0.00 | 0.00 | 0.00 | 81 | 1007.9 |
| 20260506083401 | 15 | 268 | 4.8 | 19.3 | 0.00 | 0.00 | 0.00 | 80 | 1007.8 |
| 20260506083354 | 15 | 289 | 4.8 | 22.5 | 0.00 | 0.00 | 0.00 | 80 | 1007.9 |
| 20260506081917 | 15 | 181 | 6.4 | 22.5 | 0.00 | 0.00 | 0.00 | 80 | 1007.9 |
| 20260506081416 | 15 | 293 | 8.0 | 20.9 | 0.00 | 0.00 | 0.00 | 80 | 1007.9 |
| 20260506081145 | 15 | 180 | 6.4 | 20.9 | 0.00 | 0.00 | 0.00 | 80 | 1007.8 |
| 20260506080413 | 15 | 276 | 4.8 | 16.1 | 0.00 | 0.00 | 0.00 | 79 | 1007.9 |
| 20260506073407 | 15 | 292 | 4.8 | 19.3 | 0.00 | 0.00 | 0.00 | 77 | 1008.0 |
| 20260506072859 | 15 | 327 | 6.4 | 20.9 | 0.00 | 0.00 | 0.00 | 77 | 1007.9 |
| 20260506072634 | 15 | 287 | 4.8 | 20.9 | 0.00 | 0.00 | 0.00 | 77 | 1007.8 |
| 20260506071905 | 15 | 277 | 4.8 | 19.3 | 0.00 | 0.00 | 0.00 | 77 | 1007.8 |
| 20260506071403 | 15 | 257 | 6.4 | 20.9 | 0.00 | 0.00 | 0.00 | 76 | 1007.7 |
| 20260506070913 | 15 | 204 | 6.4 | 20.9 | 0.00 | 0.00 | 0.00 | 76 | 1007.7 |
| 20260506070400 | 15 | 269 | 6.4 | 20.9 | 0.00 | 0.00 | 0.00 | 76 | 1007.7 |
| 20260506061846 | 16 | 258 | 3.2 | 20.9 | 0.00 | 0.00 | 0.00 | 73 | 1007.6 |
| 20260506061721 | 17 | 308 | 6.4 | 25.7 | 0.00 | 0.00 | 0.00 | 71 | 1007.6 |
| 20260506061711 | 16 | 285 | 4.8 | 22.5 | 0.00 | 0.00 | 0.00 | 73 | 1007.6 |
| 20260506061646 | 16 | 2 | 6.4 | 25.7 | 0.00 | 0.00 | 0.00 | 72 | 1007.6 |
| 20260506061006 | 16 | 263 | 8.0 | 25.7 | 0.00 | 0.00 | 0.00 | 72 | 1007.6 |
| 20260506060445 | 16 | 265 | 6.4 | 25.7 | 0.00 | 0.00 | 0.00 | 72 | 1007.7 |
| 20260506044813 | 17 | 310 | 6.4 | 24.1 | 0.00 | 0.00 | 0.00 | 68 | 1008.0 |
| 20260506044314 | 17 | 326 | 6.4 | 24.1 | 0.00 | 0.00 | 0.00 | 68 | 1008.2 |
| 20260506043802 | 17 | 307 | 6.4 | 20.9 | 0.00 | 0.00 | 0.00 | 68 | 1008.1 |
| 20260506043308 | 17 | 327 | 6.4 | 24.1 | 0.00 | 0.00 | 0.00 | 68 | 1008.2 |
| 20260506042837 | 17 | 310 | 6.4 | 25.7 | 0.00 | 0.00 | 0.00 | 67 | 1008.1 |
| 20260506042759 | 17 | 333 | 6.4 | 25.7 | 0.00 | 0.00 | 0.00 | 68 | 1008.0 |
| 20260506042432 | 17 | 183 | 8.0 | 25.7 | 0.00 | 0.00 | 0.00 | 67 | 1008.1 |
| 20260506041249 | 17 | 240 | 6.4 | 25.7 | 0.00 | 0.00 | 0.00 | 67 | 1008.1 |
| 20260506040746 | 17 | 242 | 6.4 | 27.4 | 0.00 | 0.00 | 0.00 | 67 | 1008.1 |
| 20260506040300 | 17 | 322 | 6.4 | 27.4 | 0.00 | 0.00 | 0.00 | 67 | 1008.1 |
| 20260506040217 | 17 | 29 | 6.4 | 27.4 | 0.00 | 0.00 | 0.00 | 66 | 1008.1 |
| 20260506035853 | 17 | 269 | 6.4 | 27.4 | 0.00 | 0.00 | 0.00 | 67 | 1008.0 |
| 20260506034757 | 17 | 300 | 6.4 | 25.7 | 0.00 | 0.00 | 0.00 | 66 | 1008.0 |
| 20260506034606 | 17 | 305 | 4.8 | 16.1 | 0.00 | 0.00 | 0.00 | 66 | 1007.8 |
| 20260506034550 | 17 | 154 | 6.4 | 24.1 | 0.00 | 0.00 | 0.00 | 66 | 1007.9 |
| 20260506034325 | 17 | 313 | 4.8 | 16.1 | 0.00 | 0.00 | 0.00 | 66 | 1007.9 |
| 20260506032735 | 17 | 263 | 6.4 | 20.9 | 0.00 | 0.00 | 0.00 | 66 | 1007.9 |
| 20260506032257 | 17 | 308 | 8.0 | 25.7 | 0.00 | 0.00 | 0.00 | 66 | 1007.7 |
| 20260506032236 | 16 | 286 | 6.4 | 25.7 | 0.00 | 0.00 | 0.00 | 66 | 1007.7 |
| 20260506031802 | 16 | 246 | 6.4 | 20.9 | 0.00 | 0.00 | 0.00 | 66 | 1007.7 |
| 20260506030727 | 17 | 353 | 6.4 | 25.7 | 0.00 | 0.00 | 0.00 | 66 | 1007.7 |
| 20260506030228 | 17 | 307 | 6.4 | 32.2 | 0.00 | 0.00 | 0.00 | 66 | 1007.9 |
| 20260506025828 | 17 | 357 | 6.4 | 35.4 | 0.00 | 0.00 | 0.00 | 66 | 1007.8 |
| 20260506025824 | 17 | 50 | 6.4 | 22.5 | 0.00 | 0.00 | 0.00 | 65 | 1007.9 |
| 20260506025749 | 17 | 310 | 8.0 | 32.2 | 0.00 | 0.00 | 0.00 | 66 | 1007.7 |
| 20260506025413 | 17 | 277 | 6.4 | 35.4 | 0.00 | 0.00 | 0.00 | 66 | 1007.7 |
| 20260506023819 | 17 | 225 | 8.0 | 24.1 | 0.00 | 0.00 | 0.00 | 66 | 1007.9 |
| 20260506023739 | 17 | 107 | 8.0 | 24.1 | 0.00 | 0.00 | 0.00 | 65 | 1007.8 |
| 20260506022715 | 17 | 11 | 6.4 | 27.4 | 0.00 | 0.00 | 0.00 | 65 | 1007.8 |
| 20260506022220 | 17 | 319 | 6.4 | 27.4 | 0.00 | 0.00 | 0.00 | 65 | 1008.0 |
| 20260506022120 | 16 | 271 | 8.0 | 32.2 | 0.00 | 0.00 | 0.00 | 65 | 1008.0 |
| 20260506021837 | 17 | 126 | 8.0 | 32.2 | 0.00 | 0.00 | 0.00 | 65 | 1007.8 |
| 20260506020734 | 16 | 311 | 8.0 | 27.4 | 0.00 | 0.00 | 0.00 | 65 | 1007.8 |
| 20260506020247 | 17 | 287 | 6.4 | 29.0 | 0.00 | 0.00 | 0.00 | 65 | 1007.9 |
| 20260506015703 | 17 | 289 | 6.4 | 29.0 | 0.00 | 0.00 | 0.00 | 64 | 1007.8 |
| 20260506014716 | 17 | 287 | 6.4 | 29.0 | 0.00 | 0.00 | 0.00 | 63 | 1007.8 |
| 20260506014209 | 17 | 343 | 6.4 | 29.0 | 0.00 | 0.00 | 0.00 | 63 | 1007.7 |
| 20260506013709 | 17 | 257 | 8.0 | 29.0 | 0.00 | 0.00 | 0.00 | 63 | 1007.8 |
| 20260506013309 | 17 | 318 | 6.4 | 25.7 | 0.00 | 0.00 | 0.00 | 62 | 1007.6 |
| 20260506013212 | 17 | 100 | 8.0 | 25.7 | 0.00 | 0.00 | 0.00 | 63 | 1007.7 |
| 20260506013131 | 17 | 317 | 6.4 | 25.7 | 0.00 | 0.00 | 0.00 | 62 | 1007.6 |
| 20260506012031 | 17 | 298 | 4.8 | 25.7 | 0.00 | 0.00 | 0.00 | 61 | 1007.5 |
| 20260506011737 | 17 | 307 | 4.8 | 25.7 | 0.00 | 0.00 | 0.00 | 61 | 1007.5 |
| 20260506010933 | 17 | 246 | 6.4 | 19.3 | 0.00 | 0.00 | 0.00 | 60 | 1007.4 |
| 20260506010925 | 17 | 348 | 8.0 | 22.5 | 0.00 | 0.00 | 0.00 | 60 | 1007.5 |
| 20260506010736 | 17 | 300 | 6.4 | 22.5 | 0.00 | 0.00 | 0.00 | 61 | 1007.4 |
| 20260506005413 | 18 | 237 | 6.4 | 25.7 | 0.00 | 0.00 | 0.00 | 60 | 1007.3 |
| 20260506005140 | 18 | 237 | 6.4 | 25.7 | 0.00 | 0.00 | 0.00 | 60 | 1007.3 |
| 20260506004650 | 18 | 300 | 8.0 | 25.7 | 0.00 | 0.00 | 0.00 | 60 | 1007.4 |
| 20260506004415 | 18 | 267 | 8.0 | 35.4 | 0.00 | 0.00 | 0.00 | 60 | 1007.2 |
| 20260506003644 | 18 | 298 | 8.0 | 35.4 | 0.00 | 0.00 | 0.00 | 59 | 1007.1 |
| 20260506003505 | 18 | 279 | 6.4 | 38.6 | 0.00 | 0.00 | 0.00 | 58 | 1007.0 |
| 20260506003246 | 18 | 309 | 8.0 | 38.6 | 0.00 | 0.00 | 0.00 | 59 | 1007.0 |
| 20260506002147 | 18 | 297 | 8.0 | 20.9 | 0.00 | 0.00 | 0.00 | 58 | 1006.9 |
| 20260506001633 | 18 | 339 | 9.7 | 20.9 | 0.00 | 0.00 | 0.00 | 57 | 1006.9 |
| 20260506001145 | 19 | 327 | 8.0 | 20.9 | 0.00 | 0.00 | 0.00 | 57 | 1006.7 |